Showing default

HULIANWANG DIGUI-16, 62976

Orbit data source: Space-Track

HULIANWANG DIGUI-16, 62976 is a payload satellite owned by Zhongguo Xingwang (CN) in LEO that was launched on Tue, 11 Feb 2025 UTC via a CHANG ZHENG 8A launch vehicle from the Wenchang Satellite Launch Center (WSC). Payload-class satellites include a variety of spacecraft equipped with specific instruments for various scientific and technological missions. These include communications satellites like Starlink; space stations such as the ISS; scientific satellites like the Hubble; Earth observation satellites from companies like Planet Labs, Umbra, and HawkEye 360; GPS; miniature CubeSats for education and research; and military/defense satellites.

Loading next visibility...
Identifier
62976, 2025-030F
Orbit
LEO
Country
Flag of CNCN / PRC
Related business
Manufacturer
CAST
Mission
Operational Civil Communications
Bus & Motor
GUOWANG C, Unknown motor
Mass
~800 kg wet, ~800 kg dry
Launch date (UTC)
2025-02-11 (7 months ago)
Launch vehicle
CHANG ZHENG 8A
Launch site
Wenchang Satellite Launch Center (WSC)
Object type
Payload
Rocket body
Debris
Shape & HBR
Box + 2 Pan, 5.0 m
Radar Cross Section
5.935 m², Large (>1 m²)

Expand to show TLE details & history
Last TLE update: 11 hours ago

TLE from 11 hours ago
0 HULIANWANG DIGUI-16
1 62976U 25030F   25258.56372744 -.00000094  00000-0  64094-4 0  9991
2 62976  50.0035 140.5503 0001150  43.0777 317.0185 13.29330322 29338
Epoch: 2025-09-15T13:31Z
TLE epoch observation values (Epoch: 2025-09-15T13:31:46.05Z)
Latitude
-0.00003°
Longitude
-57.15818°
Altitude
1,149.163 km
Speed
7.28 km/s
True Right ascension
09h 22m 12s
True Declination
0° 00' 00"
Sunlit
Object was in daylight at epoch
Visualization orbit readout
Latitude
Unknown
Longitude
Unknown
Altitude
Unknown
Speed
Unknown
Apparent Right ascension
Unknown
Apparent Declination
Unknown
Sunlit
N/A
Visualization observer readout
Local Sidereal Time
16:50:17
Azimuth
Unknown
Elevation
Unknown
Doppler factor
Unknown
Orbital elements
Apogee altitude
1,150.861 km
Perigee altitude
1,149.129 km
Semi-major axis
7,528.132 km
Eccentricity
0.00012
Inclination
50.0035°
RAAN
140.5503°
Arg. of periapsis
43.0777°
True anomaly
317.00951°
Mean anomaly
317.0185°
Eccentric anomaly
317.01401°
Mean motion
3.32286 °/min
Orbital period
108.34 mins
BSTAR
0.000064094
Loading maneuver chart data...
Computing Atmospheric mass density...
Loading historical data...
Loading historical data...
Loading historical data...
Loading historical data...
Loading historical data...
Loading historical data...
Loading historical data...

Documentation

Showing up to 5 results
|